Location: Dayton
(39.7590°N, 84.1920°W)
Time: 03:26:51
(UTC-05:00)

ATLAS CENTAUR R/B - Visible Passes

Search period start: 05 December 2016 00:00
Search period end: 15 December 2016 00:00
Orbit: 213 x 8008 km, 57.3° (Epoch: 25 November)

Date Brightness Start Highest point End Pass type
(mag) Time Alt. Az. Time Alt. Az. Time Alt. Az.
05 Dec 6.4 17:22:19 10° NW 17:36:07 73° SW 18:19:29 10° SSE visible
05 Dec 8.0 20:31:53 10° WNW 20:46:28 20° WSW 21:10:38 10° SW visible
06 Dec 6.3 17:04:27 10° NW 17:17:49 76° SW 18:00:42 10° SSE visible
06 Dec 8.0 20:13:07 10° WNW 20:28:13 21° WSW 20:54:26 10° SW visible
07 Dec 6.2 16:46:20 10° NW 16:59:15 79° SW 17:41:34 10° SSE visible
07 Dec 7.9 19:54:12 10° WNW 20:09:40 23° WSW 20:37:46 10° SSW visible
08 Dec 7.8 19:35:08 10° WNW 19:50:49 26° WSW 20:20:37 10° SSW visible
09 Dec 7.7 19:15:53 10° WNW 19:31:40 28° WSW 20:03:02 10° SSW visible
10 Dec 7.7 18:56:26 10° WNW 19:12:13 30° WSW 19:44:59 10° SSW visible
11 Dec 7.5 18:36:47 10° WNW 18:52:29 33° WSW 19:26:30 10° SSW visible
12 Dec 7.4 18:16:56 10° WNW 18:32:28 35° WSW 19:07:36 10° SSW visible
13 Dec 7.3 17:56:52 10° WNW 18:12:10 38° WSW 18:48:15 10° S visible
14 Dec 7.2 17:36:35 10° WNW 17:51:34 41° WSW 18:28:29 10° S visible
